GFSGBSN_850_rhum_024.txt.gz
RH
97 98 99 99 98 99 94 76 82 88 93 91 98 91 93 78 74 76 78 80 90 95 95 95 95 98 99 100 84 94 91 82 45 88 100 100 94 75 72 68 62 64 57 54 50 48 48
99 99 93 91 96 99 89 80 82 90 89 83 88 91 92 93 84 78 83 81 82 76 92 92 97 99 100 98 82 70 74 80 60 85 96 99 91 70 62 66 62 57 53 51 48 47 46
96 98 94 94 99 99 87 83 79 83 92 99 80 86 86 78 81 72 81 76 79 85 97 99 99 96 99 95 79 72 55 81 68 82 92 93 80 70 65 65 56 56 57 56 55 50 50
98 97 97 100 100 98 84 81 89 74 86 80 80 80 86 59 64 74 70 72 75 74 84 99 100 94 97 84 76 93 88 85 85 88 77 84 71 71 66 60 59 67 63 75 54 56 50
88 98 98 99 99 99 83 81 89 87 90 83 84 81 96 94 69 62 69 66 65 73 81 97 96 87 84 82 82 78 93 91 91 88 79 76 74 70 65 74 72 68 88 80 62 51 50
92 100 94 94 96 99 86 82 78 80 76 88 96 89 92 95 92 80 71 61 65 67 70 81 88 99 92 83 78 72 95 92 94 89 81 79 75 84 83 72 85 84 76 76 72 49 55
91 98 97 91 98 98 85 91 94 84 77 83 99 78 81 81 79 74 75 66 75 72 94 87 94 91 92 78 76 67 89 94 90 98 84 75 93 89 75 75 64 67 72 72 64 52 53
90 96 97 93 98 95 94 92 88 99 97 96 93 87 84 72 80 84 79 82 89 91 92 70 95 83 90 90 75 83 93 90 89 98 92 97 94 79 72 67 68 69 77 78 67 51 49
83 95 98 92 100 97 96 92 96 98 98 100 99 74 87 85 88 87 79 74 87 90 91 83 96 90 83 67 71 79 83 90 82 88 89 82 85 79 70 74 76 74 77 74 70 57 52
90 96 96 93 92 97 98 96 95 97 88 84 88 99 96 92 91 89 82 81 83 90 93 82 94 94 82 64 74 71 90 85 86 94 94 84 76 86 90 87 68 76 57 57 58 63 78
79 95 99 92 94 94 96 94 85 96 83 87 86 81 88 84 95 99 93 91 95 90 73 82 89 97 81 68 69 71 85 85 75 87 94 92 89 88 81 79 58 65 54 59 63 72 66
63 98 95 93 92 86 98 97 86 88 79 88 86 84 85 85 91 98 89 89 88 83 100 99 95 91 78 71 77 70 60 64 76 72 65 72 57 58 60 60 53 59 60 67 74 74 84
65 100 93 95 76 36 94 94 68 88 82 96 86 83 79 87 94 93 83 84 86 93 99 99 92 76 78 79 81 74 73 78 91 98 100 71 65 54 54 65 56 59 66 84 66 84 74
17 94 91 95 27 19 67 77 52 72 71 77 71 70 74 76 77 83 86 84 92 93 97 91 77 79 87 77 85 82 74 82 68 79 94 92 92 61 53 60 69 65 60 77 50 74 74
16 60 60 89 47 5 47 67 62 65 61 69 72 74 81 86 89 92 96 96 98 99 98 86 72 88 98 83 83 91 86 79 68 61 80 84 85 60 58 57 56 73 84 63 85 84 88
20 48 54 21 88 6 16 62 57 57 56 55 63 71 88 94 99 98 94 98 100 97 68 74 87 80 95 94 89 95 88 66 66 58 56 66 93 67 61 56 62 62 64 81 89 63 69
22 38 64 30 26 12 4 31 57 48 50 51 63 69 76 87 88 83 99 100 86 79 76 70 90 83 88 83 75 74 82 58 55 62 57 62 74 80 63 71 79 74 86 83 77 86 82
29 35 45 55 20 12 7 6 51 53 47 49 65 86 70 78 93 99 99 98 90 84 80 72 63 68 74 74 77 70 80 61 54 56 64 56 80 97 77 64 63 66 74 75 82 76 94
45 59 44 69 30 19 9 5 13 62 54 65 67 63 67 74 99 95 85 87 89 83 78 73 59 58 61 69 73 66 67 55 54 54 60 61 79 94 85 71 69 74 74 70 74 82 97
51 55 76 70 60 21 13 8 4 58 61 68 73 94 76 73 85 92 84 91 82 70 71 56 61 55 58 61 66 70 66 63 57 52 49 52 74 76 83 72 81 92 82 78 76 96 84
58 63 84 92 92 42 18 10 5 26 70 72 83 98 98 98 90 91 87 87 84 85 72 60 56 56 61 72 72 75 67 65 61 58 62 62 88 88 83 77 79 76 76 84 85 77 82
65 70 74 96 90 73 31 24 9 9 73 78 95 95 91 92 89 89 80 81 86 79 81 68 69 72 59 67 64 79 70 66 66 62 66 68 96 93 93 75 88 97 87 81 82 76 73
70 75 76 95 99 90 47 43 36 7 49 88 96 99 98 84 88 82 80 77 78 71 72 82 73 79 83 82 76 58 53 54 58 71 76 73 92 92 96 77 84 90 87 82 81 77 70
71 74 77 93 98 97 81 72 69 46 27 94 100 99 92 94 94 87 86 80 78 79 71 81 75 71 79 68 66 59 58 62 60 66 64 80 83 91 98 82 86 54 61 64 70 65 71
88 88 90 95 97 99 80 88 92 88 62 45 60 99 96 90 78 88 94 94 74 73 80 79 85 82 75 71 79 76 74 68 75 67 72 67 84 98 97 87 76 58 78 74 71 64 67
94 92 92 92 90 99 95 76 94 86 95 69 50 48 95 92 89 92 84 94 86 79 75 84 82 81 78 86 82 88 79 77 90 95 77 73 79 94 83 81 95 52 64 68 61 75 56
92 94 90 93 82 99 99 93 85 88 85 82 77 66 53 93 83 99 97 95 96 85 83 88 81 79 77 89 90 90 92 79 91 98 99 100 100 92 93 94 83 60 54 66 74 65 52
91 93 93 99 81 90 98 100 99 86 85 91 86 73 82 67 46 47 81 96 90 96 92 82 84 85 91 87 89 92 92 91 89 83 90 90 93 96 89 99 92 61 75 70 60 57 57
97 96 90 96 99 95 95 98 100 97 80 94 98 99 94 97 66 55 49 53 60 74 97 98 85 82 79 90 92 91 92 94 87 94 78 92 82 90 87 79 52 55 62 53 50 53 57

GFSGBSN_850_rhum_027.txt.gz
RH
99 94 97 98 99 97 96 84 85 80 81 82 92 86 90 85 92 96 85 82 75 75 83 84 94 98 93 88 90 86 91 95 98 89 93 94 93 81 76 68 65 63 61 54 50 50 50
96 98 98 98 96 89 97 88 80 84 86 78 92 78 86 88 82 72 82 78 80 68 76 91 96 96 94 97 91 79 76 77 74 95 88 86 79 74 67 66 61 59 54 53 51 50 48
96 96 96 99 98 93 98 83 84 83 82 85 85 87 82 88 90 86 68 69 63 62 75 83 92 99 98 92 90 73 88 69 83 85 89 90 76 63 62 70 56 56 63 56 54 50 49
99 98 98 100 94 95 96 83 89 81 84 80 78 97 100 91 92 81 78 66 62 69 71 82 92 93 90 70 88 90 92 72 99 84 92 95 80 68 64 60 62 66 60 73 55 57 49
99 99 99 98 97 98 96 91 88 95 91 81 80 90 95 87 87 84 80 70 68 66 83 82 87 85 82 78 82 70 84 86 96 90 85 80 79 74 66 71 76 71 83 78 60 57 54
98 99 100 92 95 99 98 96 96 97 94 94 95 100 92 81 74 79 72 69 68 70 73 83 79 94 78 83 78 72 77 96 98 91 86 85 73 84 74 73 79 85 80 77 67 53 60
100 94 97 96 97 99 98 89 97 98 97 99 98 99 94 83 72 77 73 74 77 78 86 64 73 93 92 84 87 73 78 100 100 99 96 82 90 85 67 60 65 68 72 72 66 55 55
99 98 92 92 91 99 97 96 98 100 98 96 88 91 90 87 78 83 80 79 85 79 82 55 78 89 96 88 83 76 94 99 89 94 89 93 89 70 64 67 64 67 73 75 65 52 50
97 100 93 90 90 99 97 98 98 98 82 80 85 84 97 84 87 88 91 76 87 87 94 85 99 78 98 87 78 87 96 96 85 95 81 83 87 69 67 75 75 76 76 77 69 56 53
54 98 93 88 92 99 100 99 99 90 74 84 85 81 98 85 82 81 78 79 86 92 89 93 92 91 99 75 82 77 95 97 93 94 88 91 81 74 73 78 71 82 63 63 59 64 72
65 97 80 86 87 97 96 94 99 62 62 80 80 81 92 79 78 86 84 90 90 87 85 78 92 96 78 71 76 96 80 79 84 91 94 97 88 93 83 82 61 69 56 61 63 69 62
29 99 67 74 90 69 88 57 69 56 59 64 67 80 88 78 91 88 87 90 87 82 95 96 92 88 78 72 80 93 86 92 86 87 84 76 94 82 87 77 71 58 58 65 69 68 72
27 71 84 28 88 17 53 63 64 56 61 67 70 66 65 80 88 83 84 87 86 92 94 100 97 76 74 86 82 79 83 84 92 99 98 74 68 72 66 67 55 57 70 84 65 78 69
25 46 62 26 58 44 11 55 58 56 54 52 59 73 77 84 87 92 91 85 89 92 99 90 78 81 91 82 81 77 75 82 68 79 99 91 96 69 56 62 69 66 64 78 55 58 57
27 35 41 47 20 28 9 14 58 50 52 48 53 60 78 91 96 98 92 96 94 98 98 86 70 90 93 85 82 90 84 78 66 62 80 84 91 62 63 58 58 70 80 58 84 84 78
33 43 32 37 18 16 10 5 24 52 47 46 54 60 75 85 90 94 96 96 100 97 77 70 83 80 93 90 92 83 82 67 69 60 57 67 95 70 63 57 61 61 63 77 83 68 55
45 46 45 47 38 18 12 7 4 49 48 50 55 60 73 74 80 87 99 100 86 82 73 71 87 85 86 85 81 84 84 62 58 62 57 64 74 82 64 70 77 72 81 78 73 77 65
49 52 66 56 57 44 16 9 4 23 51 48 50 85 72 62 86 97 99 98 88 84 77 63 66 70 77 74 75 72 76 62 55 55 64 60 80 92 77 66 63 65 73 67 76 75 88
55 60 79 70 62 72 58 14 6 7 65 63 64 61 66 64 96 96 80 83 88 82 76 68 61 61 61 70 74 66 65 58 55 53 63 61 77 94 84 74 70 74 75 67 71 79 96
63 67 72 95 75 81 75 37 10 5 66 70 73 89 72 73 88 86 91 91 84 73 68 58 62 56 58 64 67 72 67 68 58 51 52 53 72 72 71 68 80 89 82 71 74 87 79
69 71 69 92 93 87 88 48 13 6 68 71 83 98 98 98 88 93 88 85 83 87 75 60 59 56 61 73 73 74 69 70 61 64 62 60 87 86 76 68 81 78 79 82 84 74 78
75 74 72 78 93 94 90 68 27 8 34 75 96 97 89 92 91 90 78 81 83 79 83 68 68 73 58 67 62 79 71 70 70 65 65 68 95 92 87 76 87 95 84 81 79 72 74
82 85 76 71 91 93 85 77 72 27 12 92 99 98 96 88 91 86 84 77 77 76 78 79 72 74 79 81 78 66 55 55 61 72 76 71 93 89 88 76 82 93 84 83 78 78 67
94 99 94 80 90 93 87 78 88 88 38 47 83 97 94 94 93 93 90 92 83 83 72 81 76 69 72 67 62 57 60 64 64 68 62 78 83 90 93 78 86 51 62 67 71 67 70
97 97 92 88 85 91 95 93 91 88 88 50 42 71 90 82 78 87 89 96 87 73 79 79 83 77 74 70 77 77 73 66 76 78 71 62 80 98 95 84 69 62 76 76 75 66 63
92 89 89 86 100 88 99 100 90 86 78 78 64 52 80 87 80 86 78 83 98 85 79 83 86 86 77 85 81 86 90 74 93 94 78 79 74 81 84 87 86 53 67 65 64 81 60
83 94 93 93 98 97 95 98 99 91 85 83 82 76 61 86 76 88 93 88 90 94 91 84 87 85 81 88 88 90 89 75 94 89 97 100 100 97 91 88 81 58 57 66 76 68 52
98 87 87 92 94 98 99 98 99 99 88 76 82 88 90 77 52 50 64 74 78 86 95 86 89 87 90 88 86 88 91 93 90 82 74 82 95 83 76 88 94 59 71 70 59 54 55
98 81 82 90 98 98 99 99 99 100 99 92 87 91 88 90 61 58 62 68 62 58 88 93 99 88 80 89 92 91 92 95 90 84 82 94 80 88 79 77 54 60 59 53 55 58 60

GFSGBSN_850_rhum_030.txt.gz
RH
94 97 96 93 91 96 95 99 77 80 78 78 85 85 83 83 93 67 60 73 78 68 68 83 84 89 76 90 78 91 94 96 99 91 95 89 81 74 64 56 56 49 47 43 43 50 47
94 98 96 98 89 98 99 96 87 80 80 92 82 82 76 92 92 78 70 67 69 68 66 80 82 86 91 77 61 79 95 89 100 86 89 87 68 67 58 59 51 47 48 43 44 44 47
96 92 96 92 89 96 95 97 89 87 95 93 91 85 82 90 99 92 82 80 79 89 67 69 80 89 89 73 90 81 90 96 95 85 88 85 68 68 60 58 54 51 50 45 47 44 39
98 95 98 96 99 95 93 97 98 98 98 91 96 91 96 96 82 83 80 75 73 81 81 70 76 84 83 69 95 93 83 75 91 91 89 84 72 63 54 54 52 47 43 57 34 39 42
85 95 97 99 89 97 97 98 88 92 99 92 89 94 93 97 87 78 78 74 80 83 82 80 87 89 67 76 86 92 84 82 92 97 98 81 72 62 60 52 56 46 39 40 45 45 34
86 95 96 98 94 98 98 96 94 97 94 87 83 82 87 82 77 75 72 68 71 70 81 86 91 89 76 74 81 74 73 82 99 98 98 91 76 62 49 48 49 52 40 44 37 42 48
70 92 95 98 91 96 98 95 90 95 91 83 82 77 84 76 72 73 69 77 85 86 92 59 57 79 80 74 79 85 82 77 98 91 87 76 80 75 48 43 42 42 43 41 43 48 46
36 97 95 90 93 98 97 88 86 99 97 82 85 80 94 84 73 80 77 82 87 89 65 62 76 86 87 97 83 89 86 91 93 88 81 92 84 50 41 48 49 48 48 48 51 44 43
29 93 91 93 86 89 91 46 96 99 83 72 90 88 73 80 77 78 85 84 85 85 84 88 91 92 87 87 77 84 86 94 80 90 81 93 67 45 52 52 54 52 51 59 47 48 43
32 50 67 93 76 62 76 48 80 90 82 58 66 82 77 78 76 76 94 85 81 88 95 96 95 96 92 91 89 88 92 98 89 96 87 93 80 53 49 58 47 57 53 56 56 54 46
31 37 58 82 55 27 60 56 52 69 68 68 58 60 64 76 86 97 93 95 86 82 86 78 96 97 89 79 89 98 85 92 88 95 93 97 91 66 63 55 49 53 51 51 52 54 53
31 34 44 62 37 18 21 55 51 58 63 64 66 67 54 53 66 75 83 84 82 94 91 99 96 84 82 73 80 93 99 90 87 86 87 93 91 86 86 69 51 46 48 49 50 52 70
31 41 36 37 26 24 13 26 51 53 57 60 58 61 73 67 61 71 77 81 94 86 97 99 92 74 65 80 86 80 91 90 88 99 100 97 98 85 90 87 62 52 58 78 76 85 57
32 45 40 49 37 28 17 5 23 50 49 55 56 61 71 88 89 92 85 80 88 97 100 86 68 65 78 66 93 86 79 84 60 73 81 90 95 97 89 74 89 58 57 62 56 47 40
34 47 48 45 58 35 24 9 4 35 50 48 55 60 76 85 87 92 90 97 97 100 97 66 57 68 74 69 68 66 67 64 56 55 74 78 91 63 58 53 53 62 74 45 65 61 55
38 50 54 46 46 56 50 15 7 7 51 47 57 61 74 77 81 85 85 97 97 91 74 57 67 64 72 74 65 61 65 58 57 52 50 60 92 62 57 53 51 53 47 66 74 68 47
46 54 54 48 43 43 56 40 9 4 47 49 57 67 68 69 73 85 100 100 81 78 72 60 67 65 69 73 64 66 62 58 50 53 47 52 60 76 59 61 58 59 61 58 50 55 45
53 61 59 63 55 50 46 63 14 6 39 50 53 81 66 60 82 86 94 89 84 73 73 55 56 60 60 62 64 63 53 54 50 46 51 53 65 80 69 58 54 53 53 44 49 69 62
55 65 62 61 60 46 43 61 21 7 62 67 63 63 64 55 78 78 68 70 75 66 64 55 56 54 54 58 63 57 58 55 54 47 50 49 66 88 85 66 60 65 58 52 54 62 77
57 68 67 65 73 64 57 65 28 10 52 71 80 86 71 69 90 71 76 73 69 72 60 55 55 49 50 53 51 58 59 62 56 49 54 46 58 67 54 70 63 80 65 57 58 69 54
60 71 78 72 80 75 73 75 30 12 25 76 89 94 89 87 78 76 79 76 71 70 68 58 54 51 48 56 56 58 60 59 56 62 54 50 91 80 58 60 70 66 65 65 77 55 60
46 78 90 77 81 88 82 76 43 15 21 82 97 93 88 86 85 74 72 72 75 71 75 58 56 54 50 50 45 57 55 55 56 60 53 56 92 85 81 69 72 80 64 61 62 58 55
58 99 95 80 83 86 86 84 76 46 22 60 97 96 92 84 75 70 73 72 72 72 72 76 62 59 60 61 66 60 52 48 48 54 58 59 87 83 76 64 66 74 65 63 62 59 55
98 90 89 79 88 89 91 97 92 73 62 42 80 92 87 76 73 74 77 84 77 78 77 73 75 60 68 61 60 57 56 57 54 56 50 61 76 83 81 69 77 52 51 51 57 51 53
89 88 93 86 86 86 86 96 96 93 71 66 49 56 97 66 70 68 76 86 83 74 72 78 83 83 73 71 58 60 61 61 68 66 56 50 61 85 82 72 53 49 63 60 62 59 48
75 89 80 86 87 88 90 93 98 97 86 72 73 56 60 82 58 78 69 74 86 76 65 79 89 86 79 68 65 71 65 56 73 77 64 61 54 60 70 78 59 46 60 61 54 68 53
82 92 79 82 85 90 90 92 96 100 98 83 79 78 72 74 58 83 70 70 85 94 82 75 88 87 81 72 71 69 65 54 73 79 88 78 80 76 73 68 50 38 54 64 67 60 52
92 96 82 82 88 93 94 96 97 99 99 96 84 81 82 87 59 53 62 72 58 73 84 87 86 88 86 85 78 72 66 64 67 58 63 66 75 82 74 78 79 50 60 54 50 55 55
98 99 91 86 91 89 94 93 95 99 99 98 86 80 94 100 77 67 72 69 59 53 78 84 97 89 78 79 75 73 72 73 66 72 60 73 57 56 54 52 41 55 54 58 59 63 64

GFSGBSN_850_rhum_033.txt.gz
RH
95 93 94 90 98 98 94 92 91 86 84 84 94 98 78 83 86 85 87 75 74 71 67 76 85 91 79 74 55 81 83 83 75 89 90 71 59 69 59 46 39 43 28 29 30 40 36
99 96 92 94 92 94 99 99 99 98 93 97 87 89 89 87 87 89 94 78 71 64 62 77 79 86 84 69 46 51 98 99 71 93 73 61 53 63 53 43 41 42 38 35 34 41 40
86 98 96 93 96 98 99 96 96 91 92 98 83 81 96 86 89 82 96 80 75 75 75 73 76 90 79 65 61 57 69 89 100 89 62 60 53 60 52 49 45 41 41 39 34 37 36
81 98 95 90 93 98 95 98 97 91 90 99 95 85 83 90 90 75 82 77 69 71 72 73 69 86 72 60 61 79 86 70 82 98 59 65 55 53 51 45 46 45 44 50 36 40 36
66 80 93 95 94 99 98 98 97 89 92 100 91 77 78 94 80 72 73 72 67 76 75 77 86 82 56 70 66 66 85 92 73 89 64 81 64 57 50 48 52 45 45 40 34 32 35
35 74 94 89 93 98 99 96 92 88 96 98 83 78 86 74 68 68 66 60 63 65 76 95 88 77 63 60 76 82 86 76 87 80 94 91 70 50 46 42 48 41 38 28 29 41 36
33 62 97 72 93 99 98 97 92 90 97 99 86 88 83 72 68 67 80 83 86 81 79 55 51 60 78 84 78 84 82 99 89 85 85 82 76 68 44 32 25 23 32 27 24 38 41
34 55 77 53 82 90 95 80 97 97 96 68 76 69 76 68 68 73 83 76 93 93 57 58 63 72 80 89 86 91 92 94 77 79 51 85 79 43 32 30 36 36 35 36 32 36 40
34 38 49 59 52 62 87 52 94 98 97 67 63 59 66 69 72 89 90 97 80 97 84 90 90 86 92 96 73 92 91 95 80 62 68 73 61 41 42 38 43 36 37 35 43 43 37
35 38 35 52 45 31 56 56 62 64 70 82 68 64 54 59 91 89 94 82 78 80 99 96 87 95 92 86 94 97 86 88 90 64 75 76 60 50 50 48 36 42 33 43 50 48 35
37 39 38 51 47 20 21 20 53 56 57 59 66 72 55 48 60 92 78 71 76 96 93 95 94 93 88 94 86 95 93 95 92 92 94 96 82 56 51 42 34 46 43 46 50 52 50
39 41 40 42 59 34 14 11 12 43 54 55 59 65 78 87 62 51 56 66 87 99 94 99 94 91 92 84 83 97 95 94 94 88 84 94 93 78 71 44 36 43 46 47 47 49 71
44 41 44 44 42 50 44 13 8 9 47 54 50 58 69 87 84 68 71 93 98 90 96 97 86 80 72 80 84 81 95 95 98 100 100 99 97 92 82 61 48 46 51 75 77 85 63
45 43 48 43 38 40 45 54 10 5 27 51 50 58 70 84 89 88 100 83 93 91 96 71 68 56 88 84 89 76 91 94 66 72 100 100 98 97 88 78 69 57 50 63 63 58 48
45 46 52 50 46 43 38 48 45 7 12 46 50 63 74 90 83 86 87 97 95 100 82 56 48 62 78 59 71 72 56 62 68 55 85 94 97 89 90 70 57 70 72 42 55 38 43
44 49 55 55 54 43 38 34 58 10 11 49 54 68 85 74 79 99 75 96 89 79 65 48 56 52 61 57 52 47 49 48 53 46 42 55 87 89 87 74 68 66 47 71 73 75 40
45 50 57 59 58 51 44 34 52 16 12 50 59 72 66 65 84 81 92 88 63 64 61 53 52 51 56 59 48 46 49 51 43 44 40 45 54 71 70 68 64 59 65 53 51 50 51
50 52 61 64 62 58 47 40 56 17 7 51 70 81 63 65 70 62 74 76 76 59 58 47 47 48 47 48 50 48 46 46 43 39 45 47 58 79 66 52 47 46 45 42 51 63 46
50 57 68 69 67 60 53 49 60 18 8 65 79 70 63 60 70 56 58 58 61 52 52 45 48 47 45 47 54 50 47 47 47 41 42 44 64 88 78 60 53 59 50 46 45 54 69
55 56 83 73 65 68 62 67 60 18 11 70 86 86 65 67 72 48 54 53 56 65 50 47 46 42 45 46 40 51 52 52 49 44 48 41 49 68 58 72 52 67 54 51 55 68 45
53 54 91 77 69 74 76 77 61 20 21 82 88 86 85 75 60 61 63 61 56 57 56 49 48 44 41 47 44 48 49 52 50 56 46 44 91 77 49 54 62 60 54 55 71 54 50
60 91 85 77 81 85 88 85 66 25 22 92 92 97 85 65 66 60 64 60 62 58 60 48 50 43 40 42 38 45 46 46 47 49 47 48 86 77 83 58 61 69 56 51 53 52 44
59 80 83 84 82 89 85 86 80 49 20 76 91 94 95 70 59 57 58 62 64 62 62 61 53 46 47 45 47 46 40 38 40 48 51 53 82 87 72 57 59 69 57 54 51 48 44
64 78 86 83 85 88 85 86 95 80 56 70 54 94 87 59 55 60 64 68 66 67 69 59 61 54 61 58 52 47 44 44 44 43 42 53 70 77 81 68 81 52 44 41 46 45 44
73 82 76 81 86 88 84 83 88 91 83 70 59 63 75 52 41 48 62 67 67 62 63 67 71 79 65 61 52 57 56 53 54 48 46 40 50 71 78 63 45 35 42 52 53 52 42
76 86 78 74 77 85 89 87 89 92 94 87 77 52 80 63 50 66 54 56 69 59 57 66 85 88 77 58 55 61 60 47 61 62 52 47 44 58 61 68 57 46 49 46 44 62 42
82 94 89 82 84 89 91 89 87 90 93 86 85 76 58 70 45 63 50 64 68 72 69 62 74 79 79 62 65 58 54 43 56 63 70 67 60 70 62 62 47 33 54 53 69 63 50
82 89 88 89 89 86 89 90 89 95 92 92 97 77 82 88 77 72 62 56 45 51 63 78 75 80 80 77 66 60 52 48 47 46 54 59 64 64 57 66 72 39 56 57 50 51 52
87 93 93 93 89 86 92 92 91 91 94 99 99 86 88 95 84 71 71 74 68 62 69 69 86 78 79 72 57 53 51 50 50 56 42 58 45 48 47 48 36 42 40 53 57 55 58

GFSGBSN_850_rhum_036.txt.gz
RH
77 97 95 98 98 99 97 99 95 88 92 99 98 82 88 92 95 80 82 92 70 68 80 70 71 86 85 81 68 61 62 65 70 93 85 82 58 70 71 57 45 49 38 33 32 36 36
80 98 96 95 94 98 92 95 84 94 99 98 100 98 87 81 93 82 82 95 79 79 75 72 71 87 86 71 55 54 76 95 93 92 77 76 54 60 58 49 47 41 41 36 30 39 38
71 87 95 99 92 96 90 88 96 99 100 97 100 100 79 81 96 78 88 95 82 75 81 64 69 77 87 66 65 73 58 89 100 89 78 69 55 53 61 56 46 40 48 40 35 39 38
52 70 95 92 94 96 90 95 85 99 98 97 93 84 74 89 84 67 79 76 74 68 62 59 53 92 74 61 54 61 67 71 88 83 75 69 61 49 56 52 46 48 45 59 41 38 36
37 56 92 86 90 93 90 95 91 97 96 98 81 84 83 69 65 60 63 63 62 74 75 70 66 86 62 66 60 57 64 85 91 86 67 69 67 51 58 62 68 54 60 58 45 38 39
37 46 71 72 71 75 85 91 93 94 89 86 61 60 57 59 60 60 57 58 60 58 64 90 82 75 64 52 59 56 60 73 92 94 77 97 73 61 63 73 89 70 56 48 48 43 43
36 35 38 52 45 51 54 63 92 91 94 82 67 72 66 61 66 63 84 91 88 86 82 65 65 58 59 72 64 72 96 87 84 97 95 90 81 78 64 52 48 38 44 41 33 39 44
37 35 34 41 44 48 22 66 74 65 62 90 60 64 68 69 68 82 81 73 93 90 74 59 56 58 69 81 85 90 89 88 90 96 71 88 88 54 47 40 39 33 39 39 30 39 41
39 35 36 36 38 38 18 16 50 56 52 56 67 62 60 67 80 88 90 98 97 95 97 87 75 86 81 94 91 94 84 87 91 88 79 78 61 45 40 40 40 40 40 37 43 45 39
41 36 38 38 36 42 40 17 29 30 49 51 56 60 60 65 88 78 76 75 80 74 100 95 89 88 85 96 96 95 92 96 87 71 65 81 54 52 46 43 35 47 33 34 50 55 58
43 38 42 42 36 35 38 54 29 17 14 50 56 58 62 66 64 88 66 65 76 90 94 90 90 77 86 97 93 98 91 77 86 78 85 96 78 69 58 49 37 40 44 47 51 56 58
42 40 42 46 44 38 34 36 57 14 6 29 52 55 58 89 93 78 55 66 95 99 97 96 92 79 85 72 80 90 92 86 95 78 82 93 85 88 84 54 39 42 52 52 50 56 89
40 41 43 50 54 48 39 34 32 43 8 18 45 56 63 74 94 90 78 94 99 93 97 94 93 88 70 75 79 77 94 96 98 98 100 95 98 86 78 71 52 48 63 89 94 95 87
41 41 46 49 56 58 46 40 27 46 9 16 43 56 67 76 94 88 96 97 88 83 97 69 75 68 76 74 81 88 96 100 91 85 100 98 98 97 86 80 69 59 59 83 73 89 73
41 40 44 53 60 61 56 42 31 43 11 21 45 66 70 73 82 95 99 88 88 98 74 57 51 81 84 66 65 90 90 95 88 83 98 99 100 94 87 80 62 71 84 46 70 40 76
38 40 44 58 63 63 55 44 32 40 13 31 47 80 83 68 79 99 91 84 80 74 62 50 59 51 62 55 57 61 66 70 70 59 50 63 98 94 93 83 73 64 48 75 93 78 62
38 41 47 63 65 60 53 48 36 44 12 46 69 74 75 60 85 94 93 86 60 57 56 55 49 46 51 54 51 46 53 48 42 44 42 50 67 99 95 99 92 82 83 67 62 70 85
42 45 61 51 59 55 62 56 55 33 9 40 80 92 66 61 89 64 86 65 66 53 54 46 46 48 47 46 45 46 53 51 41 39 48 50 65 93 92 58 50 67 67 63 85 75 64
50 62 51 59 60 67 75 73 60 21 13 59 88 68 69 61 82 63 57 55 54 51 49 44 46 46 44 43 50 48 52 46 45 46 49 49 76 94 78 66 55 63 54 55 55 74 81
61 60 71 71 68 89 84 71 56 21 25 77 85 89 75 73 63 62 58 53 59 62 50 45 44 42 45 45 39 51 55 51 47 47 44 43 56 78 85 73 67 74 61 57 67 90 61
62 52 72 75 79 87 77 72 65 22 46 93 81 86 81 96 70 65 58 58 54 60 55 47 48 45 42 47 44 48 53 56 50 51 46 52 88 74 50 54 68 64 61 60 76 67 71
52 57 73 82 81 86 79 79 71 42 47 59 94 93 90 73 62 61 69 58 61 57 58 48 52 42 39 44 41 49 50 48 49 52 50 55 93 83 81 55 59 72 64 55 60 60 58
51 67 72 81 77 81 77 82 82 72 27 52 68 92 96 66 58 58 69 66 62 64 60 57 59 57 47 66 56 48 40 37 42 53 56 61 91 92 84 57 61 82 68 62 57 53 54
56 72 71 72 75 78 80 83 87 83 66 56 55 92 74 67 52 63 62 62 65 66 72 61 63 60 58 53 48 44 42 41 43 44 44 61 79 92 94 76 95 54 46 47 53 50 49
64 79 79 76 77 79 90 82 87 83 84 76 57 46 78 59 39 45 52 55 61 59 64 65 77 79 61 62 58 58 60 54 50 47 49 47 65 88 94 89 61 48 53 53 56 55 44
69 86 89 86 81 82 90 84 90 86 87 86 79 72 65 69 50 50 49 42 68 70 57 66 79 81 76 74 66 71 82 56 71 68 54 49 50 65 73 82 75 62 48 44 46 82 46
70 85 88 87 83 78 84 87 86 88 85 90 98 73 85 76 55 61 60 77 67 72 75 61 73 73 78 76 71 71 71 43 61 58 73 75 70 85 78 68 62 58 55 50 84 73 44
81 92 95 90 87 79 85 89 90 92 90 92 91 96 82 88 76 78 67 58 52 44 64 64 75 76 73 83 78 73 67 55 50 46 62 72 79 77 70 74 82 56 60 71 60 53 55
82 89 90 88 89 82 83 85 86 94 91 99 98 99 98 95 70 69 69 66 68 57 66 60 70 76 99 96 81 69 64 52 54 67 48 66 57 63 59 62 45 43 48 54 54 54 58

GFSGBSN_850_rhum_042.txt.gz
RH
45 45 68 59 85 92 95 92 90 99 89 98 99 72 70 79 82 76 77 74 82 79 69 73 76 88 100 89 68 60 60 77 39 83 94 71 86 89 86 72 69 61 60 60 71 77 75
38 42 56 62 88 74 99 90 91 99 75 90 79 85 65 68 61 66 84 88 84 75 63 67 81 97 91 86 67 77 79 62 51 84 91 70 82 74 68 68 69 59 51 59 75 75 81
36 41 40 63 87 80 75 86 88 99 93 50 55 52 52 57 57 55 71 84 83 76 69 62 76 86 87 80 75 79 83 77 85 86 88 70 71 74 60 68 55 54 62 55 54 56 55
36 40 38 49 72 86 79 77 76 95 97 77 47 59 52 55 60 56 52 58 63 59 56 56 62 81 67 63 57 66 75 91 94 90 79 63 69 66 65 61 63 56 56 70 51 50 46
36 38 40 45 60 87 80 76 79 98 89 69 78 52 58 54 62 64 67 56 50 60 59 58 70 71 60 60 57 63 65 74 92 83 91 73 77 69 63 73 86 76 80 68 58 47 47
35 39 40 39 45 74 81 99 90 90 97 56 60 50 53 59 60 63 69 82 75 56 63 74 73 82 62 65 62 54 58 65 85 82 96 86 78 85 76 84 83 78 77 58 56 52 48
36 40 41 40 47 52 63 80 100 99 85 61 60 51 44 62 69 73 70 76 80 73 79 72 67 64 57 55 69 58 68 69 97 91 96 96 86 86 78 72 60 64 57 64 54 46 49
36 41 41 40 47 50 71 79 99 99 98 68 21 50 58 53 61 71 70 65 82 82 79 67 66 66 61 71 79 78 68 90 95 90 92 96 86 69 66 66 63 61 62 60 47 44 51
37 42 41 41 47 53 65 64 89 92 95 83 33 52 52 52 57 62 61 63 76 92 93 87 76 85 86 80 77 79 76 89 85 85 94 88 74 68 64 71 74 60 67 56 51 48 43
38 42 42 45 49 55 59 68 59 85 60 52 12 46 55 64 70 74 72 71 72 74 98 98 90 90 78 83 89 93 80 89 89 83 85 86 66 71 69 68 60 69 45 43 55 59 72
43 42 42 54 51 72 73 56 57 57 36 41 12 46 58 63 72 70 82 68 75 91 96 94 97 95 90 91 84 92 80 78 87 89 89 95 81 72 72 64 46 54 45 59 56 63 60
50 42 39 49 51 63 89 49 41 44 50 39 12 48 63 71 88 84 92 65 96 88 94 100 97 94 92 87 90 94 90 86 84 85 84 93 89 84 70 60 47 54 59 64 70 68 82
48 42 40 48 56 76 69 43 53 59 41 34 17 50 66 72 86 92 93 88 91 92 79 90 95 99 92 97 92 77 83 97 97 99 100 97 96 83 84 66 57 57 65 92 90 92 82
48 38 47 50 74 54 49 55 72 52 38 22 40 60 74 80 88 92 86 94 88 82 100 74 78 89 99 95 94 92 96 98 86 82 99 98 99 93 86 76 72 64 59 85 83 98 81
41 47 50 61 55 50 59 57 74 32 26 12 47 69 80 85 90 94 91 93 80 94 75 79 66 80 99 94 92 89 89 89 83 84 87 96 98 88 84 89 78 73 81 56 72 70 86
43 50 61 54 57 57 63 56 54 23 14 15 61 76 80 78 90 99 89 90 88 78 76 73 71 54 69 82 95 96 92 77 83 75 74 83 98 96 86 85 74 72 59 80 91 85 74
51 60 55 54 60 62 57 59 43 16 14 41 72 79 85 79 98 98 93 90 81 66 68 63 66 58 58 59 69 75 87 81 76 76 71 74 80 99 92 97 88 86 95 81 79 79 87
58 59 48 55 57 57 56 57 34 14 20 63 80 94 90 85 99 97 92 71 66 59 58 60 53 54 56 53 60 71 71 65 69 61 83 63 91 100 98 84 72 74 85 66 91 90 84
61 49 51 53 56 57 60 55 27 16 46 65 80 83 93 95 96 83 65 67 64 62 57 55 54 51 49 51 66 64 62 54 62 58 68 60 88 98 98 90 84 96 88 72 68 78 82
57 51 51 54 53 60 60 52 30 15 27 76 77 87 78 92 83 78 70 62 71 61 58 51 51 47 50 48 54 66 65 55 50 50 48 50 75 77 81 70 84 98 89 82 80 92 72
49 54 55 57 56 66 57 52 37 19 14 74 77 92 89 92 76 76 72 65 65 66 61 53 53 51 53 54 55 69 65 60 54 51 52 56 80 72 62 68 71 73 77 80 94 69 83
48 58 59 59 64 69 60 53 49 39 21 28 82 93 88 92 80 74 78 81 75 74 69 68 64 68 59 73 64 63 62 62 61 57 56 70 92 75 75 61 65 70 71 75 78 78 78
56 62 63 63 69 74 64 57 58 52 45 53 58 90 98 72 60 75 77 75 76 78 65 69 73 68 70 66 62 60 49 46 50 63 68 74 88 88 83 68 66 76 70 70 70 64 67
61 66 68 65 70 77 74 66 63 62 60 58 64 61 70 76 57 58 48 52 56 71 78 72 76 66 70 65 57 52 48 51 54 57 60 80 80 88 95 75 89 53 49 51 59 60 56
60 66 68 70 72 75 83 76 71 67 69 67 70 65 69 72 61 44 51 54 67 71 74 78 78 79 71 67 69 71 76 58 57 58 63 66 82 93 94 96 69 56 58 63 67 60 52
60 70 77 76 80 78 87 82 78 73 69 72 76 75 76 75 74 70 59 76 84 90 81 79 70 77 74 88 81 81 91 68 75 65 60 60 60 80 92 94 89 52 50 45 50 74 51
61 74 82 82 84 86 85 85 86 83 81 77 86 78 76 81 77 72 72 72 62 57 71 72 59 72 76 90 89 86 82 62 81 83 80 77 75 88 88 83 74 50 48 50 71 61 59
67 78 84 88 86 92 89 87 87 85 84 86 82 76 85 87 72 76 73 78 65 66 79 62 79 82 86 87 87 82 79 67 64 63 75 74 84 90 85 94 88 51 58 69 59 58 56
68 76 82 83 86 89 91 87 88 87 87 84 81 87 99 89 80 79 81 75 76 73 76 63 67 92 99 96 95 98 92 70 72 79 64 73 67 78 77 74 46 48 53 48 54 55 56

GFSGBSN_850_rhum_045.txt.gz
RH
36 38 37 72 71 71 72 98 96 94 98 57 94 65 46 45 48 74 78 80 84 74 66 71 72 84 97 98 81 70 68 72 80 73 89 89 77 80 68 87 82 77 62 54 70 76 73
37 38 36 50 79 73 89 97 100 98 96 91 59 64 52 53 50 63 82 83 79 75 57 59 84 92 98 96 81 76 70 66 70 71 89 88 72 68 68 78 81 68 60 70 77 73 74
36 39 38 41 70 83 90 97 94 99 96 95 86 53 55 55 52 53 63 73 72 69 62 55 77 92 90 85 76 75 87 68 65 65 90 84 69 74 72 77 61 62 75 86 85 73 84
34 40 41 38 64 84 99 99 99 98 98 96 98 93 60 57 58 54 54 56 56 54 57 57 66 61 63 66 75 68 88 89 79 59 88 84 76 66 68 65 65 71 74 89 74 75 73
35 40 44 40 47 89 95 95 89 99 98 94 93 96 92 60 60 59 62 56 49 56 63 63 70 77 60 70 77 66 68 87 86 89 85 93 72 73 68 82 87 74 89 77 67 59 66
38 40 45 43 46 79 91 100 98 97 98 66 85 87 72 85 69 58 65 70 64 55 66 73 77 76 58 60 71 58 63 79 93 74 99 84 76 87 82 85 85 86 86 71 66 57 70
42 41 45 46 46 57 92 98 99 99 98 86 50 74 59 55 63 74 69 72 74 70 76 73 74 68 58 62 71 60 54 68 94 93 96 85 89 93 85 66 60 69 65 71 54 51 56
47 42 44 45 54 63 80 95 99 99 100 85 54 52 66 58 52 64 64 63 64 71 77 70 68 72 66 71 82 73 65 81 88 95 92 92 84 74 70 68 65 67 66 67 51 49 53
53 42 46 46 55 86 64 90 97 100 95 92 62 22 80 59 54 58 57 62 73 88 92 83 77 82 86 78 83 84 63 88 90 96 92 98 76 67 70 74 72 65 70 61 60 51 47
60 46 47 45 52 84 93 91 93 100 95 93 46 20 67 60 66 67 71 70 69 78 97 93 87 88 83 84 88 88 79 86 95 96 91 96 70 71 76 76 72 76 49 50 57 62 76
59 52 47 42 59 67 89 81 86 94 96 70 40 16 60 63 77 71 79 70 65 89 96 97 92 92 79 86 84 87 77 86 92 92 90 97 87 81 80 70 55 62 48 50 58 65 59
57 57 46 46 57 63 72 87 91 94 90 39 30 22 62 67 87 84 88 65 85 85 94 99 95 90 87 81 84 86 81 86 92 85 88 94 86 72 71 56 48 55 60 64 71 67 88
62 56 43 50 61 49 62 86 80 92 64 29 15 48 64 75 84 91 94 88 93 92 76 100 98 87 81 89 82 78 78 95 98 99 99 96 93 82 80 69 56 52 66 94 94 93 88
63 49 49 57 54 48 57 69 56 54 27 17 30 61 74 79 88 92 92 86 90 78 99 78 94 90 92 83 72 75 75 93 89 91 93 100 99 93 87 71 72 66 61 88 86 97 80
60 47 54 57 47 50 52 52 54 26 19 26 61 71 87 88 88 91 90 92 79 85 72 82 99 100 100 87 67 71 75 79 86 84 92 96 100 86 87 85 72 72 76 54 77 76 88
51 52 58 45 47 50 51 51 44 17 26 50 74 83 91 91 91 97 89 88 87 73 73 76 72 66 99 89 78 88 89 77 84 76 70 77 98 96 85 78 75 70 62 76 90 80 81
50 58 49 44 46 50 49 50 27 15 40 72 82 86 93 91 98 98 95 94 80 67 70 65 67 60 66 97 89 86 84 78 68 80 73 77 78 98 87 94 91 78 90 83 78 78 78
55 57 44 45 46 48 50 49 29 17 47 82 85 96 96 99 99 98 94 76 67 61 62 61 55 56 58 56 74 72 92 80 70 68 80 68 80 94 92 84 74 77 85 78 90 87 87
60 48 44 46 46 47 48 48 33 16 34 65 78 92 99 100 98 87 70 68 67 65 60 56 57 54 50 53 72 66 64 62 70 70 78 71 91 98 95 93 87 95 90 78 73 80 87
57 46 47 48 49 47 47 46 42 21 22 71 73 92 89 99 95 85 83 66 71 61 59 54 54 49 50 52 63 71 68 57 60 57 54 53 79 77 81 70 86 96 88 86 76 98 80
51 47 49 50 53 49 46 45 50 39 24 65 76 96 90 96 83 80 75 81 70 62 63 56 57 58 54 55 60 74 67 61 56 54 63 60 81 80 68 66 82 88 86 82 90 76 86
43 51 50 54 55 51 50 48 50 47 31 35 70 86 88 86 73 76 79 83 82 76 76 70 71 70 64 72 66 71 66 63 58 58 62 69 89 73 76 62 70 75 78 87 85 76 72
44 53 54 56 56 54 53 54 52 50 46 49 60 87 90 64 56 78 70 81 72 76 70 76 83 68 70 68 67 63 54 51 52 64 72 73 88 87 84 78 66 73 65 72 78 73 76
48 54 58 59 56 55 59 55 56 60 65 57 58 49 64 65 56 47 50 50 62 72 77 71 81 73 77 73 66 55 52 56 57 62 64 78 79 86 93 77 91 56 45 56 63 63 67
50 55 63 63 60 61 57 57 61 65 73 68 64 64 55 73 69 50 57 73 73 72 77 85 76 77 79 71 70 72 77 62 59 63 68 66 82 93 93 96 71 49 58 61 62 58 54
52 59 70 68 67 66 62 66 67 75 77 73 64 67 69 65 83 77 67 72 79 72 77 71 68 74 71 86 82 81 90 71 77 71 60 64 62 80 93 94 91 52 56 48 51 76 51
54 64 76 74 73 73 72 74 73 77 84 78 63 57 72 76 82 78 82 77 61 60 65 68 56 73 77 89 88 90 86 64 84 79 84 81 80 93 89 89 79 55 49 51 70 57 61
57 66 79 78 81 83 78 77 80 81 80 73 69 65 69 78 83 78 75 76 68 66 72 60 79 80 88 88 89 84 86 74 70 66 73 80 87 87 86 93 91 47 58 69 58 56 58
57 69 78 74 81 82 82 77 83 78 75 63 66 68 85 75 80 79 73 76 80 68 68 63 70 96 99 92 91 94 94 83 75 79 65 76 67 74 80 79 49 44 55 49 53 57 55

GFSGBSN_850_rhum_048.txt.gz
RH
37 41 43 63 97 82 83 98 95 72 89 92 100 77 96 85 54 70 80 79 74 74 67 68 69 81 96 92 90 89 83 88 74 98 99 98 89 70 78 73 81 85 70 66 64 62 66
38 41 45 57 88 98 91 100 98 85 94 97 95 100 65 96 64 50 66 73 70 67 66 67 81 90 97 90 81 87 82 75 78 92 92 94 83 64 65 68 74 74 64 72 78 77 74
43 39 44 52 75 87 88 98 91 98 96 99 98 94 99 60 63 56 50 59 65 59 65 61 77 85 90 82 80 81 85 81 67 71 91 90 72 70 70 82 71 75 80 86 80 81 80
54 40 44 52 67 92 96 100 98 87 88 99 100 98 96 92 61 57 58 57 48 51 53 56 64 64 66 70 78 81 78 80 68 64 76 79 64 72 77 71 68 82 89 99 86 77 90
65 44 45 48 73 87 95 99 99 98 98 99 98 99 96 92 92 58 57 66 47 51 52 65 72 82 63 69 75 65 66 92 74 65 85 86 78 71 72 88 87 82 97 86 98 70 87
76 52 46 47 56 83 98 99 98 98 98 98 98 99 84 95 87 84 60 70 60 52 61 71 75 70 56 56 68 59 64 93 88 78 95 98 84 88 88 87 88 93 89 78 82 87 84
82 60 46 48 52 82 98 99 98 97 98 98 100 100 77 96 69 69 66 66 72 63 70 74 77 71 61 77 72 59 55 79 92 77 95 91 99 91 90 69 64 73 68 81 59 63 78
84 68 48 49 53 68 88 83 99 98 98 99 100 100 57 76 76 59 62 62 70 72 71 73 70 74 69 74 76 70 59 81 89 95 94 97 99 79 71 66 66 66 75 73 55 57 62
88 75 50 52 52 54 72 98 100 98 97 98 100 100 57 81 74 58 57 60 69 70 90 80 75 83 86 82 87 84 64 92 91 97 100 97 76 71 73 74 72 68 76 69 68 57 48
88 79 52 54 48 52 76 100 100 99 98 98 99 97 31 84 79 69 69 71 72 74 97 90 84 80 83 84 90 82 71 93 90 99 97 96 79 76 79 78 70 74 58 55 64 68 87
97 77 57 55 47 58 69 92 99 99 97 100 97 66 28 97 87 79 73 71 67 84 96 98 94 84 84 85 85 91 78 84 94 93 94 98 87 83 83 77 57 63 52 54 59 69 61
93 70 60 48 52 52 56 93 99 97 99 88 33 20 50 86 90 85 82 62 89 85 96 99 93 87 85 80 87 88 84 87 96 88 89 94 88 73 71 61 52 59 61 64 67 72 90
89 67 58 48 58 44 52 86 78 85 92 34 19 47 63 82 88 88 90 86 90 92 76 100 98 82 77 85 82 78 92 98 97 99 99 98 96 83 74 67 56 55 71 96 94 94 91
77 66 50 54 50 43 46 57 55 48 29 25 46 66 76 85 92 95 92 79 91 80 100 87 78 83 82 74 73 64 80 100 87 86 100 99 98 92 86 72 74 62 61 87 87 96 83
74 62 50 57 42 41 44 48 44 20 23 32 72 85 88 89 92 91 86 93 80 83 74 97 94 100 87 78 68 67 73 80 86 84 87 99 99 86 88 84 65 70 78 56 79 76 88
70 54 55 46 41 41 43 46 35 17 35 53 81 91 97 96 95 97 84 89 87 69 73 92 100 98 95 80 69 67 76 67 87 79 66 79 99 95 85 79 73 66 61 77 88 81 83
65 52 56 41 41 40 43 45 35 17 44 72 87 94 94 96 100 94 97 95 78 68 71 69 70 69 89 81 65 76 84 80 73 84 70 73 78 99 88 93 90 78 90 80 74 76 80
60 55 49 42 41 39 44 44 36 17 33 81 91 95 94 100 99 97 98 80 68 64 66 64 58 58 64 87 92 87 90 77 68 74 77 69 81 95 99 86 80 77 78 75 89 85 89
55 58 43 44 41 39 44 45 40 27 14 70 85 100 97 100 93 89 75 68 68 65 65 59 58 56 51 60 76 69 68 66 69 70 74 75 89 96 98 90 88 93 90 81 76 83 90
54 57 44 44 40 40 44 42 38 35 16 63 82 93 97 100 98 91 84 77 71 64 61 58 57 52 50 64 70 72 70 65 66 60 56 57 82 78 85 71 80 96 94 88 77 94 77
58 48 45 42 40 41 43 41 37 35 23 52 78 96 93 94 90 84 77 82 76 63 65 64 63 66 56 61 66 77 69 65 60 64 73 64 85 80 70 64 88 88 83 87 93 85 87
60 42 45 42 41 43 45 39 37 36 37 34 67 86 90 76 70 80 82 89 86 79 75 80 85 75 65 73 72 73 69 66 66 60 76 69 89 73 76 64 79 85 79 87 81 80 85
55 43 46 42 42 46 47 42 40 38 37 47 68 89 88 63 64 77 63 72 67 77 77 84 84 67 77 80 82 74 61 57 56 67 76 74 88 88 86 78 69 80 69 72 82 80 76
44 47 45 42 45 48 48 47 43 40 40 47 56 46 62 64 56 50 56 54 74 78 78 77 80 70 82 79 70 60 56 60 58 68 66 78 78 85 89 77 89 55 46 55 67 60 71
42 47 45 43 50 49 50 48 46 48 48 48 55 60 49 74 71 58 66 73 71 72 77 86 70 80 80 69 70 72 79 64 61 62 69 66 81 95 92 95 68 46 58 62 64 58 55
43 45 44 47 52 52 54 51 54 51 49 43 43 55 64 64 87 84 72 73 75 71 75 66 61 74 73 83 79 80 88 72 80 73 65 64 64 78 95 94 87 48 56 51 53 72 49
46 43 47 51 56 56 56 59 59 52 49 45 46 46 64 80 84 76 82 78 63 63 68 67 57 73 74 86 88 90 88 65 83 78 83 83 81 94 94 94 80 58 54 53 69 58 56
45 43 44 56 60 57 62 66 60 50 48 48 53 52 59 78 83 77 74 74 66 64 74 61 82 77 90 92 91 87 88 79 74 68 77 83 89 89 89 91 91 48 58 63 54 55 58
43 46 47 54 56 65 66 68 61 50 51 50 54 58 61 67 82 71 75 78 74 70 66 62 77 93 95 89 87 86 95 89 83 80 67 78 69 68 78 75 52 49 56 47 52 57 58